Ephrata, WA

8:16 PM PDT on August 31, 2016 (GMT -0700)
Ephrata Municipal

Weather History for KEPH - November, 2012

Change the Weather History Date:

Friday, November 9, 2012

  Actual Average Record
Temperature  
Mean Temperature 36 °F 40 °F  
Max Temperature 44 °F 49 °F 72 °F (1989)
Min Temperature 28 °F 31 °F 20 °F (1975)
Degree Days  
Heating Degree Days 29 25  
Month to date heating degree days 163 212  
Since 1 July heating degree days 658 793  
Cooling Degree Days 0 0  
Month to date cooling degree days 0 0  
Year to date cooling degree days 837 772  
Moisture  
Dew Point 29 °F    
Average Humidity 73    
Maximum Humidity 92    
Minimum Humidity 53    
Precipitation  
Precipitation 0.01 in 0.04 in 0.37 in (1958)
Month to date precipitation 0.07 0.28  
Year to date precipitation 5.93 5.83  
Sea Level Pressure  
Sea Level Pressure 29.86 in    
Wind  
Wind Speed 5 mph (North)    
Max Wind Speed 14 mph    
Max Gust Speed 18 mph    
Visibility 10 miles    
Events      
T = Trace of Precipitation, MM = Missing Value Source: NWS Daily Summary

Daily Weather History Graph

Daily Weather History Graph

Search for Another Location

Airport or City:

Trip Planner

Search our weather history database for the weather conditions in past years. The results will help you decide how hot, cold, wet, or windy it might be!

Date:

Astronomy

Nov. 09, 2012 Rise Set
Actual Time 6:54 AM PST 4:28 PM PST
Civil Twilight 6:21 AM PST 5:01 PM PST
Nautical Twilight 5:44 AM PST 5:38 PM PST
Astronomical Twilight 5:08 AM PST 6:14 PM PST
Moon 1:40 AM PST (11/9) 2:00 PM PST (11/9)
Length of Visible Light 10h 40m
Length of Day
9h 34m
Waning Crescent, 22% of the Moon is Illuminated
Nov 9
Waning Crescent
Nov 13
New
Nov 20
First Quarter
Nov 28
Full
Dec 6
Last Quarter

Hourly Weather History & Observations

Time (PST) Temp. Windchill Dew Point Humidity Pressure Visibility Wind Dir Wind Speed Gust Speed Precip Events Conditions
12:53 AM 33.1 °F - 30.0 °F 89% 29.78 in 10.0 mi Calm Calm - N/A   Mostly Cloudy
1:53 AM 30.0 °F - 28.0 °F 92% 29.80 in 10.0 mi Calm Calm - N/A   Partly Cloudy
2:53 AM 30.9 °F 27.5 °F 28.0 °F 89% 29.81 in 10.0 mi West 3.5 mph - N/A   Mostly Cloudy
3:53 AM 33.1 °F 27.7 °F 28.0 °F 82% 29.81 in 10.0 mi NW 5.8 mph - N/A   Overcast
4:53 AM 30.9 °F 26.2 °F 27.0 °F 85% 29.82 in 10.0 mi North 4.6 mph - N/A   Scattered Clouds
5:53 AM 32.0 °F 28.7 °F 28.0 °F 85% 29.83 in 10.0 mi NW 3.5 mph - N/A   Clear
6:53 AM 33.1 °F 28.7 °F 28.0 °F 82% 29.84 in 10.0 mi NW 4.6 mph - N/A   Overcast
7:53 AM 32.0 °F 27.5 °F 27.0 °F 82% 29.86 in 10.0 mi NW 4.6 mph - N/A   Clear
8:53 AM 39.0 °F 34.8 °F 32.0 °F 76% 29.86 in 10.0 mi North 5.8 mph - N/A   Overcast
9:53 AM 39.0 °F 33.4 °F 28.9 °F 67% 29.87 in 10.0 mi NNW 8.1 mph - N/A   Overcast
10:53 AM 39.9 °F 36.7 °F 28.9 °F 65% 29.87 in 10.0 mi North 4.6 mph - N/A   Overcast
11:53 AM 42.1 °F 36.6 °F 27.0 °F 55% 29.86 in 10.0 mi NNW 9.2 mph - N/A   Overcast
12:53 PM 42.1 °F 37.7 °F 26.1 °F 53% 29.85 in 10.0 mi North 6.9 mph - 0.01 in   Mostly Cloudy
1:53 PM 42.1 °F 37.1 °F 27.0 °F 55% 29.85 in 10.0 mi North 8.1 mph - N/A   Partly Cloudy
2:53 PM 42.1 °F 37.1 °F 28.0 °F 58% 29.85 in 10.0 mi NNE 8.1 mph - N/A   Clear
3:53 PM 39.0 °F 34.0 °F 28.9 °F 67% 29.86 in 10.0 mi North 6.9 mph - N/A   Partly Cloudy
4:53 PM 35.1 °F 29.3 °F 28.9 °F 78% 29.88 in 10.0 mi North 6.9 mph - N/A   Partly Cloudy
5:53 PM 34.0 °F 27.2 °F 30.0 °F 85% 29.90 in 10.0 mi North 8.1 mph - N/A   Mostly Cloudy
6:25 PM 35.6 °F 29.9 °F 30.2 °F 81% 29.86 in 10.0 mi NNE 6.9 mph - N/A   Overcast
6:51 PM 35.6 °F 30.7 °F 30.2 °F 81% 29.86 in 10.0 mi NNE 5.8 mph - N/A   Mostly Cloudy
6:53 PM 35.1 °F 31.0 °F 30.9 °F 85% 29.90 in 10.0 mi NNE 4.6 mph - N/A   Mostly Cloudy
7:09 PM 35.6 °F 31.7 °F 30.2 °F 81% 29.87 in 10.0 mi NNE 4.6 mph - N/A   Overcast
7:20 PM 35.6 °F 31.7 °F 30.2 °F 81% 29.87 in 10.0 mi NE 4.6 mph - N/A   Overcast
7:53 PM 36.0 °F 31.1 °F 30.9 °F 82% 29.92 in 10.0 mi NE 5.8 mph - N/A   Overcast
8:53 PM 36.0 °F 31.1 °F 28.0 °F 73% 29.92 in 10.0 mi NE 5.8 mph - N/A   Overcast
9:53 PM 35.1 °F 30.1 °F 27.0 °F 72% 29.93 in 10.0 mi NE 5.8 mph - N/A   Mostly Cloudy
10:53 PM 34.0 °F 31.0 °F 28.0 °F 79% 29.94 in 10.0 mi East 3.5 mph - N/A   Overcast
11:53 PM 34.0 °F 31.0 °F 28.0 °F 79% 29.94 in 10.0 mi ENE 3.5 mph - N/A   Overcast